Location: Observatoire
(46.1952°N, 5.3391°E)
Time: 15:56:37
(UTC+01:00)

Courier 1B - Pass Details

Date: 20 February 2026
Orbit: 962 x 1208 km, 28.3° (Epoch: 5 March)

Event Time Altitude Azimuth Distance (km) Brightness Sun altitude
Rises 21:51:27 0° 243° (WSW) 3,932 11.1 -37.8°
Reaches altitude 10° 21:55:06 10° 226° (SW) 3,018 10.2 -38.4°
Enters shadow 21:56:07 13° 219° (SW) 2,822 10.0 -38.5°
